Regional Weather Roundup
Issued by NWS State College, PA

Home | Current Version | Previous Version | Text Only | Print | Product List | Glossary On
Versions: 1 2 3 4 5 6 7 8 9 10 11 12 13 14 15 16 17 18 19 20 21 22 23 24 25 26 27 28 29 30 31 32 33 34 35 36 37 38 39 40 41 42 43 44 45 46 47 48 49 50
000
ASUS41 KCTP 240810
RWRCTP

REGIONAL WEATHER ROUNDUP
NATIONAL WEATHER SERVICE STATE COLLEGE PA
400 AM EDT THU APR 24 2014

Note: "fair" indicates few or no clouds below 12,000 feet with no
significant weather and/or obstructions to visibility.

* = STATION THAT DOES NOT REPORT PRECIPITATION /E.G. RAIN...SNOW...ETC/
    THUNDER OR FOG.

PAZ002>004-007>009-013>016-020>023-029>032-240900-
WESTERN PENNSYLVANIA

CITY           SKY/WX    TMP DP  RH WIND       PRES   REMARKS
ERIE           CLEAR     30  24  78 CALM      30.10F
MEADVILLE      NOT AVBL
FRANKLIN*      CLEAR     28  18  64 CALM      30.08S
NEW CASTLE     FAIR      29  17  60 CALM      30.11S
BEAVER COUNTY  NOT AVBL
BUTLER*        CLEAR     28  12  50 CALM      30.09S
PITTSBURGH INT CLEAR     33  17  51 N5        30.07F
PITTSBURGH     CLEAR     35  12  38 N6        30.07S
INDIANA*       CLEAR     28  21  74 CALM      30.07S
LATROBE        CLEAR     30  19  64 CALM      30.09S
WASHINGTON CO* CLEAR     27  19  74 CALM      30.10S
$$

PAZ004>006-010>012-017>019-024>028-033>037-041-042-045-046-049>053-240900-
CENTRAL PENNSYLVANIA

CITY           SKY/WX    TMP DP  RH WIND       PRES   REMARKS
BRADFORD       CLEAR     27  17  66 NW6       30.01F
DUBOIS         CLEAR     30  21  69 NW5       30.02F
CLEARFIELD     CLEAR     33  23  66 NW7       30.03S
JOHNSTOWN      CLEAR     28  16  60 NW7       30.01R
ALTOONA        CLEAR     33  21  61 NW7       30.03S
STATE COLLEGE  CLEAR     37  18  45 NW9       30.01S
WILLIAMSPORT   CLEAR     37  16  42 NW9       30.00R
SELINSGROVE    CLEAR     37  20  50 CALM      30.00S
FT INDIANTOWN  CLEAR     42  17  35 NW5       29.97R
CAPITAL CITY   CLEAR     44  23  43 NW10      29.99R
HARRISBURG     CLEAR     45  21  38 NW15      29.98R
YORK           CLEAR     41  25  53 NW10      29.99R
$$

PAZ038>040-043-044-047-048-054-055-060>062-067>071-240900-
EASTERN PENNSYLVANIA

CITY           SKY/WX    TMP DP  RH WIND       PRES   REMARKS
SCRANTON       CLEAR     37  19  48 NW17G23   29.93R
MOUNT POCONO   CLEAR     33  19  56 NW17G31   29.84R
ALLENTOWN      CLEAR     39  21  48 NW7       29.93R
QUAKERTOWN*    CLEAR     39  23  52 W6        29.92R
READING        CLEAR     43  19  38 NW14G24   29.94R
LANCASTER      CLEAR     38  24  57 NW9       29.96R
COATESVILLE    NOT AVBL
POTTSTOWN      CLEAR     41  23  48 NW9       29.94R
BLUE BELL      CLEAR     41  28  60 CALM      29.92R
DOYLESTOWN     CLEAR     40  24  53 NW8G20    29.90R
WILLOW GROVE   NOT AVBL
NORTH PHILA    CLEAR     44  24  45 NW9       29.93R
PHILADELPHIA   CLEAR     43  24  47 W8        29.94S
$$



USA.gov is the U.S. government's official web portal to all federal, state and local government web resources and services.